Regional Weather Roundup
Issued by NWS

Home | Current Version | Previous Version | Text Only | Print | Product List | Glossary Off
Versions: 1 2 3 4 5 6 7 8 9 10 11 12 13 14 15 16 17 18 19 20 21 22 23 24 25 26 27 28 29 30 31 32 33 34 35 36 37 38 39 40 41 42 43 44 45 46 47 48 49 50

000
ASUS43 KTOP 171608
RWRKS

WEATHER ROUNDUP FOR KANSAS
NATIONAL WEATHER SERVICE GOODLAND KS
1000 AM CST WED JAN 17 2018

NOTE:  "FAIR" INDICATES FEW OR NO CLOUDS BELOW 12,000 FEET WITH NO
SIGNIFICANT WEATHER AND/OR OBSTRUCTIONS TO VISIBILITY.

KSZ001>006-013>018-027>032-041>047-171700-
NORTHWEST KANSAS

CITY           SKY/WX    TMP DP  RH WIND       PRES   REMARKS
GOODLAND       SUNNY     27   9  46 W12       30.28R WCI  17
HAYS           CLOUDY    14   4  64 SW7       30.48S
HILL CITY      CLOUDY    16   1  51 SW13      30.44R WCI   2
RUSSELL        CLOUDY    15   5  64 S14       30.48S WCI   0
$$

KSZ061>065-074>080-084>089-171700-
SOUTHWEST KANSAS

CITY           SKY/WX    TMP DP  RH WIND       PRES   REMARKS
DODGE CITY     CLOUDY    17  -1  45 S15       30.43R WCI   2
ELKHART        SUNNY     25  13  59 SW15      30.33R WCI  12
GARDEN CITY    CLOUDY    16  -1  47 SW14      30.38S WCI   2
GREAT BEND     CLOUDY    17   5  59 S14       30.51R WCI   3
LIBERAL        CLOUDY    22   5  48 SW15      30.40S WCI   9
PRATT          CLOUDY    18   3  50 S15       30.53R WCI   4
$$

KSZ066>073-081>083-090>101-171700-
SOUTHEAST KANSAS

CITY           SKY/WX    TMP DP  RH WIND       PRES   REMARKS
CHANUTE          N/A     11   7  84 S7        30.70R
COFFEYVILLE    CLOUDY     9   7  92 S3        30.75R
HUTCHINSON     CLOUDY    16   7  67 S13       30.58R WCI   2
MEDICINE LODGE   N/A     13   2  61 S8        30.58S
NEWTON         CLOUDY    15   8  73 S14       30.61R WCI   0
PARSONS        CLOUDY    10   7  87 S6        30.73R
WICHITA INTL   CLOUDY    14   8  77 S10       30.63R WCI   1
WICHITA JABRA  CLOUDY    14   8  77 S9        30.62R
WICHITA MCCONL CLOUDY    14   6  70 SW10      30.63R WCI   1
WINFIELD       CLOUDY    15   9  76 S9        30.68R
$$

KSZ007>012-019>026-033>040-048>060-102>105-171700-
NORTHEAST KANSAS

CITY           SKY/WX    TMP DP  RH WIND       PRES   REMARKS
CONCORDIA      CLOUDY    14   4  64 SW15      30.54R WCI  -1
EMPORIA        CLOUDY    13   8  81 SW12      30.65R WCI  -1
LAWRENCE       CLOUDY     8   4  83 CALM      30.68R
MANHATTAN      CLOUDY    13   7  77 SW8       30.62F
MARYSVILLE     CLOUDY    10   7  85 SW10      30.57S WCI  -3
OLATHE IND     CLOUDY    10   6  84 SW12      30.67R WCI  -5
OLATHE EXE     CLOUDY     9   5  84 SW7       30.66R
SALINA         CLOUDY    14   6  70 S8        30.59S
TOPEKA BILLARD CLOUDY    14   7  73 SW10      30.66S WCI   1
TOPEKA FORBES  CLOUDY    12   6  77 SW9       30.64S
$$




USA.gov is the U.S. government's official web portal to all federal, state and local government web resources and services.